カタログに戻る

STARLINK-11666

運用中通信VLEO
NORAD 63667·PAYLOAD·🇺🇸 United States

打ち上げ Apr 28, 2025 から Cape Canaveral Space Force Station

Loading…

次のパス (今後24時間)

TLE

最新Source: CelesTrak SupGP

元期: Sep 14, 2026, 20:49 UTC

1 63667C 25085D   26257.86784722  .00069365  00000+0  53898-3 0  2575
2 63667  43.0007 218.5014 0001511 253.7383 346.3548 15.70794804    13

AllMySatでSTARLINK-11666をリアルタイム追跡

Download on the App Store